GEFSMA_500_meanwind_240.txt.gz
Wind_Speed
17 17 17 16 16 15 15 16 15 15 15 14 14 13 13 12 12 12 13 14 14 13 14 14 15 16 17 17 18 18 18 19 19 20 20 20 21 21 21 21 22 22 23
17 17 16 16 15 15 15 16 15 15 15 14 14 14 14 14 13 13 13 14 15 14 14 15 16 16 17 18 18 18 19 20 20 21 22 22 22 22 23 23 23 23 23
16 16 16 15 15 15 16 16 16 16 16 15 14 14 14 14 14 14 14 15 16 17 17 17 17 18 18 19 20 20 20 21 22 22 23 24 24 24 24 24 24 24 24
16 17 16 15 15 15 15 16 17 17 17 16 15 15 15 15 15 16 17 18 18 19 18 18 18 19 20 21 22 22 22 23 24 24 24 25 25 26 26 26 26 26 26
16 16 17 17 16 16 15 15 16 17 17 16 16 16 16 16 16 17 18 18 19 19 19 20 20 21 22 22 23 23 24 25 25 25 26 26 27 28 28 28 28 28 28
16 16 17 16 16 16 16 16 16 16 17 17 17 17 16 16 17 17 18 19 19 19 20 20 21 22 22 23 23 24 25 26 26 27 27 28 28 29 29 30 30 30 30
15 15 16 17 17 16 16 16 16 16 16 17 17 17 16 17 17 18 19 19 18 19 20 21 21 22 22 23 23 24 25 26 27 27 28 28 29 30 30 31 31 31 31
15 16 16 16 16 16 17 17 17 17 17 16 16 17 17 17 17 18 19 19 19 19 19 21 21 22 23 24 24 25 26 26 27 27 28 29 29 31 31 32 32 33 33
16 16 16 17 17 18 18 17 17 18 17 16 17 18 18 18 18 18 19 20 20 20 21 21 22 23 24 24 25 26 26 27 28 28 28 28 29 30 31 32 34 34 34
17 17 16 17 17 17 17 17 17 17 16 17 17 18 18 18 18 19 19 20 21 21 21 22 23 24 24 25 25 26 26 26 27 28 29 29 29 30 30 31 32 34 34
16 16 16 16 16 16 16 17 16 16 16 17 17 17 18 19 19 19 19 20 21 22 23 24 24 25 26 26 27 27 27 28 28 29 29 30 30 30 30 31 31 33 33
15 15 15 15 16 16 16 16 16 16 16 17 17 18 18 18 19 20 21 21 22 23 24 25 25 26 27 27 28 28 28 29 29 29 29 29 30 30 31 32 32 33 34
14 14 15 14 15 15 15 15 16 16 16 17 18 18 18 19 20 21 22 22 23 23 24 25 26 26 27 28 29 29 30 31 31 31 31 31 32 33 33 33 33 33 34
12 13 13 14 14 13 14 15 16 16 16 17 18 18 19 20 20 21 22 22 23 23 24 25 25 26 27 28 29 30 30 31 32 33 33 33 34 34 34 34 34 34 34
10 10 11 12 12 12 13 14 15 15 16 16 17 19 19 19 19 20 22 22 22 23 24 25 26 26 27 28 28 29 30 32 32 33 33 34 35 35 35 36 36 36 36
9 9 10 10 11 12 13 13 14 15 16 17 18 19 19 19 20 20 21 22 22 23 24 25 26 26 26 27 28 29 30 31 31 32 33 34 34 34 35 36 36 36 37
9 9 9 10 11 12 12 12 13 14 15 16 17 18 19 19 19 19 20 21 22 22 24 24 25 25 26 27 28 28 29 29 29 30 31 31 32 33 34 34 35 35 36
8 8 9 10 11 11 11 12 13 14 15 16 17 18 19 19 19 19 20 20 21 22 23 24 25 25 25 26 26 27 27 28 28 29 29 30 31 32 32 34 35 35 35
8 8 9 10 10 11 11 12 13 14 15 16 16 18 18 18 18 18 19 20 21 22 23 24 24 24 24 25 25 26 27 28 29 30 30 30 30 30 31 32 34 36 36
8 8 8 9 10 11 12 12 12 13 15 16 16 16 16 17 18 18 19 20 21 22 22 23 23 23 23 24 25 26 27 27 28 29 30 30 30 30 31 32 33 33 35
7 7 8 9 10 10 11 11 12 13 15 16 16 15 15 17 18 18 19 20 21 22 22 22 22 22 23 23 24 25 25 26 27 28 28 29 30 30 31 31 31 32 33
7 7 8 8 9 9 10 11 12 13 14 15 14 14 15 17 18 19 20 21 22 22 22 22 22 23 24 24 25 25 25 25 26 26 27 27 28 28 29 30 30 31 32
7 7 7 7 8 10 11 12 14 15 15 15 14 15 16 17 18 19 21 21 22 22 22 23 22 22 23 24 25 25 25 26 26 26 25 25 26 26 27 28 30 31 32
6 7 7 8 10 12 13 15 15 15 16 16 16 16 17 17 18 20 21 21 21 22 22 22 23 23 23 23 24 24 24 24 24 25 24 24 24 24 25 26 28 30 31
7 8 9 10 12 13 14 15 15 16 17 17 16 16 17 18 18 19 20 21 22 22 22 22 22 23 23 23 24 24 24 24 23 23 23 22 22 23 23 24 25 27 28
8 9 10 12 13 14 15 15 16 16 16 17 17 16 16 17 18 19 20 21 22 22 22 22 22 23 23 23 23 23 24 24 23 23 23 23 23 23 22 23 25 25 26

GEFSMA_500_meanwind_246.txt.gz
Wind_Speed
17 16 17 17 17 17 16 16 16 16 17 17 17 17 16 15 14 15 14 13 13 14 14 15 15 16 17 18 18 18 19 20 20 20 21 21 21 21 21 21 21 21 21
16 16 17 18 18 17 17 16 17 17 17 17 17 17 17 16 16 15 15 15 15 15 15 15 16 17 17 18 18 19 20 20 21 21 22 23 22 23 23 23 23 23 22
17 16 17 18 18 17 17 17 17 17 17 17 17 17 18 18 18 17 16 16 16 16 16 16 17 17 17 18 19 19 20 20 21 22 24 24 24 24 24 24 24 24 24
18 17 17 17 17 18 17 18 17 17 16 17 17 18 18 18 18 18 17 17 17 17 18 18 18 17 18 19 20 20 21 22 23 24 24 25 25 25 25 25 26 26 26
18 17 17 17 17 17 17 17 17 17 17 18 18 18 19 19 19 19 18 18 18 18 18 19 19 19 19 20 20 21 22 23 23 24 25 25 25 25 26 26 27 27 27
17 17 18 18 18 17 16 16 17 18 18 18 18 19 19 20 20 20 19 19 18 19 19 19 19 20 19 19 20 21 23 24 24 25 25 26 26 27 27 27 27 28 29
17 16 16 17 18 18 17 17 17 18 18 18 18 19 19 20 20 20 19 19 18 19 20 19 19 20 20 20 21 22 22 23 24 25 25 26 26 27 28 29 29 30 30
16 15 15 16 16 17 17 17 17 18 18 19 19 19 19 19 19 19 19 19 20 20 20 20 20 20 20 21 22 22 23 24 24 25 26 26 26 27 27 29 30 30 31
15 16 15 15 16 17 17 17 18 18 18 18 19 19 20 19 19 19 19 20 21 21 21 21 21 21 21 22 22 23 23 24 25 26 27 28 28 28 28 29 29 30 32
14 15 14 15 16 16 17 17 17 18 19 19 20 20 20 19 20 19 20 21 21 21 22 22 22 22 23 23 23 24 25 25 25 26 27 29 29 30 30 30 31 31 31
14 14 14 15 15 16 16 17 17 17 18 18 19 19 20 20 20 20 20 21 22 22 22 22 23 24 25 25 25 25 26 26 27 27 28 29 30 30 30 30 31 31 32
14 15 15 15 15 15 16 16 16 17 17 17 17 18 19 19 19 20 21 21 22 22 22 23 24 25 25 26 26 26 26 27 27 28 29 30 31 31 31 32 32 33 33
14 15 14 14 15 16 16 16 16 17 17 17 17 18 19 19 20 21 21 22 22 22 23 23 24 25 26 27 27 28 27 27 28 29 29 31 32 33 33 33 34 34 34
13 13 14 14 14 15 15 15 16 16 16 17 17 18 18 19 20 20 21 21 22 22 23 24 25 26 27 28 28 28 27 27 28 29 30 31 33 33 34 35 35 35 36
12 12 12 13 13 13 14 14 15 15 15 16 17 18 18 19 19 20 20 20 21 21 22 23 24 25 27 28 29 28 29 29 29 30 31 31 32 32 33 34 35 36 36
11 11 11 12 12 12 13 14 15 14 14 15 16 16 17 17 18 19 20 20 20 21 22 23 24 25 27 28 29 30 29 29 30 30 31 31 30 31 32 32 33 34 36
10 10 11 11 12 12 12 13 14 14 15 15 16 16 17 17 19 20 21 21 22 22 23 24 25 26 27 28 29 29 30 29 30 30 30 30 30 30 30 32 33 33 34
10 10 11 11 11 12 12 13 14 14 14 15 16 16 16 17 18 19 21 21 22 22 23 24 25 26 27 28 28 29 28 28 29 29 30 30 30 30 30 30 32 33 33
10 10 10 10 11 12 12 12 13 14 14 14 15 15 16 17 18 19 20 20 21 22 23 24 24 26 26 27 27 27 27 27 28 29 29 29 29 30 30 30 31 32 33
9 9 9 9 10 10 12 12 13 13 14 14 14 15 15 16 18 19 19 20 21 21 23 23 24 25 26 26 26 26 27 27 27 28 28 28 29 30 30 30 30 31 32
8 9 9 9 10 11 11 12 13 14 14 14 14 15 16 17 17 18 19 20 20 21 22 24 24 24 24 25 25 26 26 26 27 27 27 28 28 28 28 29 29 29 29
9 10 10 11 11 11 12 14 14 15 15 15 15 16 16 17 17 18 19 20 21 22 23 23 23 23 24 24 24 24 25 25 25 26 27 26 26 26 27 27 28 27 28
10 10 10 11 12 12 13 14 14 14 13 14 14 15 16 17 18 19 20 21 22 23 23 22 22 23 23 24 24 24 25 25 25 25 25 25 25 25 25 26 27 27 27
11 11 11 12 12 12 14 14 14 14 14 14 14 15 16 17 18 19 20 21 22 23 23 23 23 23 23 24 24 24 25 25 24 24 24 24 24 25 25 25 26 27 27
11 12 12 13 13 13 14 14 15 14 14 14 14 15 16 17 19 20 21 22 22 22 23 23 23 23 23 24 24 24 24 23 22 22 23 23 23 24 24 24 25 26 27
12 12 12 12 13 13 13 14 14 14 14 14 15 16 17 18 19 20 21 21 22 22 22 22 22 23 23 23 23 23 23 23 22 22 23 24 24 23 23 23 24 25 26

GEFSMA_500_meanwind_252.txt.gz
Wind_Speed
14 15 15 15 16 16 15 15 15 16 16 16 16 16 16 15 15 14 14 13 12 13 14 14 15 15 15 16 16 17 18 18 19 20 20 20 20 21 22 23 23 23 24
14 14 15 15 16 16 16 16 16 16 16 16 16 16 16 16 16 15 15 14 14 14 15 15 15 15 15 16 17 18 18 19 20 20 21 21 21 22 22 23 24 24 25
14 14 15 15 16 16 16 16 16 16 16 16 16 17 17 17 16 15 15 15 15 15 15 15 15 15 16 16 17 18 19 20 21 21 21 22 23 23 24 25 25 25 26
14 15 15 16 17 17 17 17 18 17 17 17 16 16 17 17 16 16 16 16 16 16 16 16 16 17 17 17 18 18 19 20 21 22 22 22 24 25 26 26 26 26 26
14 14 15 16 16 17 17 18 19 19 18 17 16 16 16 16 16 17 17 17 17 17 17 18 18 18 18 18 19 19 19 19 20 21 21 22 23 24 26 27 27 27 27
15 14 15 15 15 17 17 17 18 19 19 18 17 16 16 16 16 17 17 17 17 17 18 18 19 20 19 18 19 20 19 19 20 21 22 22 23 23 24 26 27 27 28
14 14 14 15 15 16 16 16 16 17 17 17 17 17 16 16 16 16 16 17 18 18 18 18 19 20 20 20 20 20 20 20 21 22 23 23 24 24 25 26 27 27 28
14 14 14 15 15 15 16 15 15 16 16 17 17 17 16 17 17 17 18 18 19 19 19 19 19 20 20 21 21 21 22 22 22 23 24 25 25 25 26 26 27 27 28
14 14 14 14 14 14 14 14 14 15 16 17 17 18 18 18 18 18 18 18 19 20 20 20 21 21 21 21 22 23 23 23 24 24 25 25 26 26 26 26 27 28 29
15 15 14 14 14 14 14 14 14 15 16 16 17 18 18 19 19 19 19 19 20 21 22 22 22 22 22 23 23 23 24 24 25 25 26 26 26 27 27 28 29 30 30
15 15 14 14 14 14 14 14 14 15 15 16 17 18 19 19 20 20 19 20 20 21 22 23 23 23 24 24 24 25 25 25 26 26 27 27 27 27 28 28 29 29 30
16 15 14 13 13 13 13 14 14 15 15 16 16 17 18 19 20 20 20 20 20 21 22 23 23 24 24 25 25 26 26 26 26 27 27 27 27 27 28 28 29 30 30
15 14 13 13 13 13 13 13 13 14 15 16 16 16 17 18 18 18 19 18 19 20 21 22 23 24 24 24 25 25 26 26 27 28 28 28 29 29 29 29 29 30 30
13 13 13 13 13 13 12 12 13 13 14 15 15 16 16 17 17 17 18 19 19 20 21 21 22 22 23 24 26 27 27 28 28 29 29 30 30 30 30 30 30 31 31
12 12 12 12 12 13 13 13 13 14 14 14 15 15 16 16 17 17 17 18 19 20 21 22 22 23 23 24 25 26 27 28 28 29 29 30 31 31 31 30 31 31 32
11 11 10 10 11 11 12 13 13 14 14 13 13 14 15 16 17 17 18 18 19 20 21 22 22 23 23 25 26 26 27 27 28 29 29 29 30 31 31 31 31 31 32
10 9 10 10 10 10 10 11 12 12 12 12 12 13 14 15 16 17 18 19 19 19 19 20 21 22 23 23 25 25 26 27 28 29 29 30 30 30 31 32 32 32 32
8 9 9 9 9 9 9 10 11 11 12 12 13 13 13 15 16 17 17 18 18 18 19 20 20 21 22 23 24 25 25 26 27 28 28 28 29 30 31 32 32 32 32
9 9 9 9 9 9 10 10 10 11 11 12 12 13 14 15 15 16 17 17 18 19 19 20 20 21 22 23 24 24 24 25 26 27 26 27 27 28 29 29 30 31 32
8 9 9 9 10 10 10 10 11 12 12 12 13 13 14 15 15 16 16 17 17 18 19 20 21 22 22 23 24 24 24 25 25 26 26 27 28 28 28 28 29 30 31
9 9 9 9 9 10 10 11 12 12 12 13 13 14 15 15 15 16 16 16 17 18 20 20 21 21 22 23 23 23 24 24 25 26 26 27 27 27 27 28 28 28 29
8 9 9 9 10 11 12 12 13 13 13 13 14 15 15 15 15 15 16 18 19 20 21 21 21 22 23 23 23 23 23 24 24 25 26 26 26 26 26 27 27 27 28
9 9 10 10 11 12 12 13 14 13 14 14 15 15 15 15 16 16 17 18 19 20 21 21 21 22 23 23 23 23 23 24 24 24 25 25 25 26 26 26 25 26 27
9 9 10 11 11 12 13 13 13 13 14 14 15 16 16 16 16 17 18 18 19 19 19 19 20 21 22 22 22 23 23 23 24 23 23 24 25 26 26 25 25 25 25
9 9 10 11 12 12 12 12 12 12 13 14 15 15 15 15 16 17 18 18 18 19 18 18 20 20 21 21 21 22 22 22 23 23 24 24 24 24 25 24 24 24 24
10 10 12 12 12 12 11 12 12 13 13 14 14 14 15 15 15 17 18 18 18 18 18 19 20 20 21 21 21 21 21 22 23 22 22 24 24 24 24 24 24 24 25

GEFSMA_500_meanwind_258.txt.gz
Wind_Speed
14 13 13 13 14 14 14 15 14 13 14 15 15 16 16 15 15 15 16 16 16 16 16 16 15 14 15 16 16 17 17 18 19 19 20 20 21 21 21 21 21 21 21
14 14 14 14 14 15 15 15 14 14 14 14 15 15 16 16 15 16 16 16 16 17 16 16 15 15 16 16 16 17 18 19 19 20 20 21 21 21 21 21 22 22 22
13 13 14 15 15 15 16 16 15 14 15 15 15 16 16 16 16 16 17 17 18 17 17 17 16 16 17 17 18 18 18 19 19 19 21 21 21 21 22 22 23 23 23
13 13 14 14 15 16 16 16 16 16 16 16 16 16 16 16 16 16 17 17 17 17 16 16 17 17 17 17 18 18 18 19 19 20 20 21 22 22 22 23 23 23 24
13 13 14 14 14 15 16 16 16 16 17 17 17 17 17 17 16 16 17 17 17 17 17 16 16 16 17 17 18 18 18 19 19 19 19 20 21 22 23 24 24 24 25
13 14 14 14 14 15 15 15 15 16 17 17 18 18 18 18 18 18 18 17 17 17 16 16 16 16 16 16 17 18 18 18 19 20 20 19 20 21 22 23 24 24 25
13 14 14 14 15 15 14 14 15 15 16 17 18 18 18 18 19 18 18 17 18 18 17 17 17 16 16 17 18 18 18 19 19 20 20 20 20 20 21 22 22 23 24
13 13 14 15 15 14 14 14 14 14 15 16 17 17 18 18 18 18 17 17 18 18 18 18 17 17 17 17 18 19 20 20 20 20 21 21 21 21 22 22 23 24 25
14 13 14 14 15 14 14 15 14 14 15 15 16 17 17 18 18 18 18 18 18 19 19 18 17 17 17 17 18 19 19 20 21 21 21 22 22 23 24 24 25 25 25
13 13 14 14 14 14 14 14 14 14 14 14 15 16 17 17 17 17 17 18 19 19 19 19 18 18 18 18 18 19 19 20 21 22 21 22 23 24 24 24 25 26 26
13 14 14 14 14 14 13 13 13 13 14 14 15 16 16 16 17 17 17 18 19 19 20 20 19 19 19 19 19 19 20 21 21 22 23 23 24 24 25 26 26 27 28
13 14 15 14 15 14 13 13 13 13 13 13 14 14 15 16 16 16 16 18 18 19 19 20 20 19 19 20 20 20 21 21 22 23 24 24 25 25 26 27 27 28 28
14 15 15 14 14 13 13 14 13 13 13 13 13 14 14 15 16 16 16 17 18 18 18 19 19 19 20 21 21 22 22 22 23 24 25 25 26 26 27 28 28 29 29
14 14 15 14 14 14 14 13 13 13 13 14 14 15 15 15 16 16 16 16 16 17 17 18 19 20 21 21 22 22 23 23 24 25 26 26 26 27 27 28 28 29 30
14 15 16 15 14 14 13 13 13 14 14 14 15 15 16 16 16 16 16 16 17 17 17 18 18 20 20 20 21 21 22 22 23 24 25 26 26 27 28 28 29 29 30
14 15 15 14 13 13 13 14 14 14 14 15 15 15 15 16 16 15 15 16 17 17 18 18 19 19 20 20 19 20 21 21 22 23 24 24 25 26 27 27 28 29 29
15 14 13 13 13 13 13 13 14 14 15 15 15 15 15 16 15 15 16 16 16 17 18 18 19 19 19 19 19 20 21 21 22 22 23 24 26 26 27 27 28 28 28
14 14 14 14 13 12 12 13 15 15 14 14 15 15 15 16 15 15 15 16 17 17 17 17 18 19 19 20 21 22 22 23 24 24 25 24 25 26 27 28 28 28 28
13 13 13 13 13 13 13 14 14 14 14 14 15 15 16 16 15 15 15 16 16 17 17 17 19 19 20 21 22 23 23 24 25 25 25 25 26 27 27 27 27 27 28
13 13 13 14 13 13 13 13 14 13 13 14 14 14 15 16 15 16 16 16 17 16 17 18 20 20 21 22 23 23 23 24 25 25 25 25 26 26 27 27 27 27 28
13 13 13 13 13 13 13 13 13 13 13 13 14 15 15 15 15 15 16 16 17 17 18 19 21 21 21 22 22 22 23 23 24 24 25 25 26 27 27 27 28 28 28
13 13 13 13 12 12 12 12 12 12 12 13 14 14 15 15 15 15 16 17 18 18 19 20 20 20 21 21 21 22 23 23 23 24 25 25 26 26 26 27 28 28 29
13 13 13 12 12 12 12 11 12 12 12 13 14 14 14 14 15 16 17 18 18 18 19 20 20 20 21 21 22 22 23 23 23 24 25 25 26 26 26 26 27 28 28
12 13 13 13 12 12 12 12 12 13 13 14 14 14 14 15 16 17 17 17 17 18 19 20 20 20 20 22 22 22 23 24 23 24 25 25 24 25 25 26 26 26 27
13 13 13 12 12 12 12 13 13 14 14 14 14 15 15 15 15 16 16 16 17 18 19 19 19 19 20 20 21 22 23 23 23 23 23 24 24 24 25 26 26 26 26
13 13 12 11 11 12 12 13 13 14 14 14 14 14 15 16 16 16 17 17 17 18 19 19 18 19 19 20 21 21 22 22 22 22 23 23 23 24 24 25 25 25 24

GEFSMA_500_meanwind_264.txt.gz
Wind_Speed
12 12 13 14 14 14 13 13 13 13 14 15 15 16 17 17 16 16 16 17 17 17 16 15 16 15 15 16 16 16 16 16 17 17 17 18 18 18 18 18 19 19 19
12 12 12 13 13 13 12 13 14 14 14 14 14 14 15 16 16 16 16 17 17 17 17 17 16 16 16 16 17 17 17 17 17 18 18 19 19 19 19 19 20 20 20
11 12 12 12 12 12 13 13 14 14 14 15 15 15 14 15 16 16 17 18 18 18 18 17 17 17 17 17 18 18 18 18 18 19 19 19 20 20 20 20 20 21 21
11 12 12 12 12 12 12 13 13 14 14 15 15 15 15 15 16 16 16 16 17 17 16 17 17 18 18 18 17 18 19 18 19 19 19 19 20 20 21 21 21 21 21
12 12 12 13 13 13 12 13 13 14 15 15 15 15 16 15 15 15 15 15 15 15 15 16 17 18 18 18 18 18 18 18 19 19 19 19 20 20 20 21 21 22 22
11 11 11 12 12 12 12 12 13 13 14 14 15 15 15 15 15 15 15 15 15 16 16 16 17 18 18 18 18 17 18 19 19 20 20 20 20 20 20 20 21 22 22
10 11 11 11 11 11 11 12 12 12 13 14 14 15 15 16 16 16 16 16 16 17 16 17 17 17 17 18 18 18 18 19 20 20 20 21 21 21 21 22 22 22 22
10 10 11 10 10 10 11 11 11 12 13 13 14 14 15 16 16 16 16 16 17 17 17 17 17 17 17 17 18 19 19 19 19 20 21 21 21 22 22 23 23 23 23
10 10 10 10 10 11 11 12 12 13 13 14 14 15 15 16 17 17 16 16 16 17 17 17 17 17 17 17 17 17 18 19 19 19 19 19 20 20 21 22 22 22 23
10 10 10 11 12 12 12 13 13 13 13 14 14 14 14 15 15 16 16 16 16 17 16 16 17 17 17 16 17 18 17 18 19 19 19 19 20 20 20 21 21 22 23
9 9 10 11 12 13 14 14 14 14 14 14 14 14 14 14 15 16 16 17 17 17 18 18 17 17 17 17 18 18 18 19 20 19 20 20 21 22 22 23 23 23 24
9 10 11 12 12 12 13 14 14 14 14 14 14 14 14 15 15 15 16 16 16 17 17 18 18 18 17 18 18 19 19 20 20 20 21 21 21 22 23 24 25 24 24
10 10 11 12 12 12 13 13 13 13 13 13 14 14 14 14 14 14 15 15 16 16 16 16 17 17 17 17 18 19 20 20 21 22 22 22 23 23 24 24 25 25 25
10 11 12 12 12 12 12 12 12 12 12 12 13 13 13 13 13 14 14 15 16 16 16 16 16 16 17 17 18 19 19 20 21 22 23 23 24 24 25 25 26 26 26
11 11 12 12 12 12 12 12 12 12 12 12 12 12 12 13 13 14 14 13 14 14 15 16 16 17 17 18 19 19 20 20 21 22 23 23 24 24 25 26 27 27 28
11 11 12 12 13 13 12 12 12 12 12 12 12 12 13 13 14 14 14 14 14 13 13 14 15 16 17 18 19 19 20 21 21 22 22 23 24 24 26 27 27 28 29
11 11 11 12 13 13 12 12 12 13 12 12 12 13 13 14 14 14 15 15 15 15 15 15 15 16 17 18 19 19 20 21 21 22 23 23 24 25 26 26 27 29 30
11 11 11 12 12 12 12 12 12 13 13 12 12 13 13 14 14 15 15 15 15 15 15 16 16 17 17 17 18 19 19 20 20 22 23 23 24 25 26 26 27 28 29
11 11 11 11 11 11 11 11 11 12 12 12 13 13 13 14 14 15 16 16 15 16 16 17 16 16 17 17 18 18 20 20 20 21 22 23 24 25 26 27 27 27 28
11 11 12 12 11 11 10 10 10 11 11 11 12 12 13 14 14 15 15 15 15 15 16 16 16 17 17 18 19 20 20 21 21 22 22 23 24 25 26 26 27 27 27
11 11 12 11 11 11 11 10 10 10 10 10 10 11 12 13 14 14 14 14 14 14 15 15 16 17 18 19 19 20 21 21 22 22 23 23 24 24 25 26 26 27 28
11 11 11 11 11 11 11 10 10 10 9 10 10 11 11 13 14 14 13 13 13 14 15 16 17 18 18 19 20 21 21 22 22 23 23 24 24 24 25 26 26 27 28
12 11 11 11 12 12 11 11 11 10 10 10 11 11 12 13 12 12 12 12 13 14 15 16 17 18 19 19 19 20 21 21 21 22 23 23 23 24 24 25 26 26 27
12 11 11 11 11 11 11 11 11 11 10 10 11 11 11 11 11 11 11 12 13 14 15 16 17 17 18 19 19 20 20 20 20 21 21 22 22 23 24 24 25 26 26
11 11 11 11 11 11 11 11 11 11 11 12 12 11 11 10 11 11 11 13 14 14 15 16 16 17 17 18 18 19 19 20 20 21 21 21 22 23 23 24 24 24 24
11 11 11 11 11 11 11 11 12 11 12 12 12 12 11 11 11 11 12 13 14 15 16 17 17 17 17 17 18 19 19 20 20 21 21 21 22 23 23 23 23 23 23